Time,TemperatureF,DewpointF,PressureIn,WindDirection,WindDirectionDegrees,WindSpeedMPH,WindSpeedGustMPH,Humidity,HourlyPrecipIn,Conditions,Clouds,dailyrainin,SoftwareType,DateUTC
2013-05-20 00:00:00,66.2,62.5,29.96,NE,39,0.0,0.0,88,0.00,,,0.00,Wunderground v.1.13,2013-05-20 04:00:00,
2013-05-20 00:10:00,65.7,62.7,29.95,NE,39,0.0,0.0,90,0.00,,,0.00,Wunderground v.1.13,2013-05-20 04:10:00,
2013-05-20 00:20:00,65.3,62.6,29.95,NE,39,0.0,0.0,91,0.00,,,0.00,Wunderground v.1.13,2013-05-20 04:20:00,
2013-05-20 00:30:00,64.9,62.2,29.94,NE,39,0.0,0.0,91,0.00,,,0.00,Wunderground v.1.13,2013-05-20 04:30:00,
2013-05-20 00:40:00,64.9,62.5,29.94,NE,39,0.0,0.0,92,0.00,,,0.00,Wunderground v.1.13,2013-05-20 04:40:00,
2013-05-20 00:50:00,64.7,62.3,29.93,NE,39,0.0,0.0,92,0.00,,,0.00,Wunderground v.1.13,2013-05-20 04:50:00,
2013-05-20 00:53:00,64.8,62.4,29.93,North,-999,0.0,0.0,92,0.00,,,-99.99,WeatherLink 6.0.2,2013-05-20 04:53:00,
2013-05-20 01:00:00,64.3,62.2,29.93,North,360,0.0,1.0,93,0.00,,,0.00,Wunderground v.1.13,2013-05-20 05:00:00,
2013-05-20 01:10:00,64.2,62.4,29.93,North,360,0.0,0.0,94,0.00,,,0.00,Wunderground v.1.13,2013-05-20 05:10:00,
2013-05-20 01:20:00,64.5,62.4,29.93,North,360,0.0,0.0,93,0.00,,,0.00,Wunderground v.1.13,2013-05-20 05:20:00,
2013-05-20 01:30:00,64.7,62.6,29.92,North,360,0.0,0.0,93,0.00,,,0.00,Wunderground v.1.13,2013-05-20 05:30:00,
2013-05-20 01:40:00,65.1,62.7,29.93,North,360,0.0,0.0,92,0.00,,,0.00,Wunderground v.1.13,2013-05-20 05:40:00,
2013-05-20 01:50:00,65.3,62.9,29.92,North,360,0.0,0.0,92,0.00,,,0.00,Wunderground v.1.13,2013-05-20 05:50:00,
2013-05-20 02:00:00,65.4,62.7,29.92,North,360,0.0,0.0,91,0.00,,,0.00,Wunderground v.1.13,2013-05-20 06:00:00,
2013-05-20 02:10:00,65.3,62.6,29.93,North,360,0.0,0.0,91,0.00,,,0.00,Wunderground v.1.13,2013-05-20 06:10:00,
2013-05-20 02:20:00,65.0,62.3,29.93,North,360,0.0,0.0,91,0.00,,,0.00,Wunderground v.1.13,2013-05-20 06:20:00,
2013-05-20 02:30:00,64.7,62.3,29.93,North,11,0.0,0.0,92,0.00,,,0.00,Wunderground v.1.13,2013-05-20 06:30:00,
2013-05-20 02:40:00,64.5,62.4,29.93,North,11,0.0,0.0,93,0.00,,,0.00,Wunderground v.1.13,2013-05-20 06:40:00,
2013-05-20 02:50:00,64.1,61.7,29.93,North,11,0.0,0.0,92,0.00,,,0.00,Wunderground v.1.13,2013-05-20 06:50:00,
2013-05-20 03:00:00,63.7,61.6,29.92,North,11,0.0,0.0,93,0.00,,,0.00,Wunderground v.1.13,2013-05-20 07:00:00,
2013-05-20 03:10:00,63.4,61.6,29.93,North,11,0.0,1.0,94,0.00,,,0.00,Wunderground v.1.13,2013-05-20 07:10:00,
2013-05-20 03:20:00,62.9,61.4,29.93,North,360,1.0,1.0,95,0.00,,,0.00,Wunderground v.1.13,2013-05-20 07:20:00,
2013-05-20 03:30:00,62.8,61.6,29.94,North,360,0.0,0.0,96,0.00,,,0.00,Wunderground v.1.13,2013-05-20 07:30:00,
2013-05-20 03:40:00,62.7,61.5,29.95,North,360,0.0,0.0,96,0.00,,,0.00,Wunderground v.1.13,2013-05-20 07:40:00,
2013-05-20 03:50:00,62.6,61.4,29.94,North,360,0.0,0.0,96,0.00,,,0.00,Wunderground v.1.13,2013-05-20 07:50:00,
2013-05-20 04:00:00,62.7,61.5,29.95,North,360,0.0,0.0,96,0.00,,,0.00,Wunderground v.1.13,2013-05-20 08:00:00,
2013-05-20 04:10:00,62.7,61.5,29.95,North,360,0.0,0.0,96,0.00,,,0.00,Wunderground v.1.13,2013-05-20 08:10:00,
2013-05-20 04:20:00,62.7,61.5,29.94,North,360,0.0,0.0,96,0.00,,,0.00,Wunderground v.1.13,2013-05-20 08:20:00,
2013-05-20 04:30:00,62.5,61.3,29.94,North,360,0.0,0.0,96,0.00,,,0.00,Wunderground v.1.13,2013-05-20 08:30:00,
2013-05-20 04:40:00,62.4,61.2,29.94,North,360,0.0,0.0,96,0.00,,,0.00,Wunderground v.1.13,2013-05-20 08:40:00,
2013-05-20 04:50:00,62.2,61.0,29.94,North,360,0.0,0.0,96,0.00,,,0.00,Wunderground v.1.13,2013-05-20 08:50:00,
2013-05-20 05:00:00,62.1,60.9,29.94,North,360,0.0,0.0,96,0.00,,,0.00,Wunderground v.1.13,2013-05-20 09:00:00,
2013-05-20 05:10:00,61.9,61.0,29.94,North,360,0.0,0.0,97,0.00,,,0.00,Wunderground v.1.13,2013-05-20 09:10:00,
2013-05-20 05:20:00,61.8,60.9,29.95,North,360,0.0,0.0,97,0.00,,,0.00,Wunderground v.1.13,2013-05-20 09:20:00,
2013-05-20 05:30:00,61.7,60.5,29.94,North,360,0.0,0.0,96,0.00,,,0.00,Wunderground v.1.13,2013-05-20 09:30:00,
2013-05-20 05:40:00,61.5,60.6,29.95,North,360,0.0,0.0,97,0.00,,,0.00,Wunderground v.1.13,2013-05-20 09:40:00,
2013-05-20 05:50:00,61.4,60.5,29.95,North,360,0.0,0.0,97,0.00,,,0.00,Wunderground v.1.13,2013-05-20 09:50:00,
2013-05-20 06:00:00,61.3,60.4,29.95,North,360,0.0,0.0,97,0.00,,,0.00,Wunderground v.1.13,2013-05-20 10:00:00,
2013-05-20 06:10:00,61.2,60.3,29.96,North,360,0.0,0.0,97,0.00,,,0.00,Wunderground v.1.13,2013-05-20 10:10:00,
2013-05-20 06:20:00,61.1,60.2,29.96,North,355,0.0,0.0,97,0.00,,,0.00,Wunderground v.1.13,2013-05-20 10:20:00,
2013-05-20 06:30:00,61.0,60.1,29.96,North,355,0.0,0.0,97,0.00,,,0.00,Wunderground v.1.13,2013-05-20 10:30:00,
2013-05-20 06:40:00,60.8,59.9,29.96,North,355,0.0,0.0,97,0.00,,,0.00,Wunderground v.1.13,2013-05-20 10:40:00,
2013-05-20 06:50:00,60.8,59.9,29.96,North,355,0.0,0.0,97,0.00,,,0.00,Wunderground v.1.13,2013-05-20 10:50:00,
2013-05-20 07:00:00,60.8,59.9,29.97,North,11,0.0,0.0,97,0.00,,,0.00,Wunderground v.1.13,2013-05-20 11:00:00,
2013-05-20 07:10:00,60.8,60.2,29.98,North,11,0.0,0.0,98,0.00,,,0.00,Wunderground v.1.13,2013-05-20 11:10:00,
2013-05-20 07:20:00,61.3,60.7,29.97,North,11,0.0,0.0,98,0.00,,,0.00,Wunderground v.1.13,2013-05-20 11:20:00,
2013-05-20 07:30:00,61.6,61.0,29.97,North,11,0.0,0.0,98,0.00,,,0.00,Wunderground v.1.13,2013-05-20 11:30:00,
2013-05-20 07:40:00,61.9,61.3,29.98,ESE,122,0.0,0.0,98,0.00,,,0.00,Wunderground v.1.13,2013-05-20 11:40:00,
2013-05-20 07:50:00,62.1,61.5,29.98,SE,141,0.0,0.0,98,0.00,,,0.00,Wunderground v.1.13,2013-05-20 11:50:00,
2013-05-20 08:00:00,62.5,61.9,29.98,SE,141,0.0,0.0,98,0.00,,,0.00,Wunderground v.1.13,2013-05-20 12:00:00,
2013-05-20 08:10:00,63.0,62.4,29.99,SE,141,0.0,0.0,98,0.00,,,0.00,Wunderground v.1.13,2013-05-20 12:10:00,
2013-05-20 08:20:00,63.6,63.0,29.98,SE,141,0.0,0.0,98,0.00,,,0.00,Wunderground v.1.13,2013-05-20 12:20:00,
2013-05-20 08:30:00,64.2,63.6,29.98,SE,141,0.0,0.0,98,0.00,,,0.00,Wunderground v.1.13,2013-05-20 12:30:00,
2013-05-20 08:40:00,65.0,64.1,29.99,SE,141,0.0,0.0,97,0.00,,,0.00,Wunderground v.1.13,2013-05-20 12:40:00,
2013-05-20 08:50:00,65.7,64.8,29.99,SE,141,0.0,0.0,97,0.00,,,0.00,Wunderground v.1.13,2013-05-20 12:50:00,
2013-05-20 09:00:00,66.4,65.2,29.99,SE,141,0.0,0.0,96,0.00,,,0.00,Wunderground v.1.13,2013-05-20 13:00:00,
2013-05-20 09:10:00,67.3,65.8,29.99,SE,141,0.0,0.0,95,0.00,,,0.00,Wunderground v.1.13,2013-05-20 13:10:00,
2013-05-20 09:20:00,68.1,66.6,29.99,East,98,0.0,0.0,95,0.00,,,0.00,Wunderground v.1.13,2013-05-20 13:20:00,
2013-05-20 09:30:00,68.9,67.1,30.00,East,98,0.0,0.0,94,0.00,,,0.00,Wunderground v.1.13,2013-05-20 13:30:00,
2013-05-20 09:40:00,69.4,67.0,30.00,East,98,0.0,0.0,92,0.00,,,0.00,Wunderground v.1.13,2013-05-20 13:40:00,
2013-05-20 09:50:00,70.1,66.7,29.99,East,98,0.0,0.0,89,0.00,,,0.00,Wunderground v.1.13,2013-05-20 13:50:00,
2013-05-20 10:00:00,71.3,66.9,29.99,North,360,0.0,1.0,86,0.00,,,0.00,Wunderground v.1.13,2013-05-20 14:00:00,
2013-05-20 10:10:00,72.5,66.7,29.98,NNW,347,0.0,0.0,82,0.00,,,0.00,Wunderground v.1.13,2013-05-20 14:10:00,
2013-05-20 10:20:00,72.9,66.0,29.98,NNW,347,0.0,0.0,79,0.00,,,0.00,Wunderground v.1.13,2013-05-20 14:20:00,
2013-05-20 10:30:00,73.6,67.0,29.98,NW,310,0.0,0.0,80,0.00,,,0.00,Wunderground v.1.13,2013-05-20 14:30:00,
2013-05-20 10:40:00,74.3,66.6,29.98,NW,310,0.0,2.0,77,0.00,,,0.00,Wunderground v.1.13,2013-05-20 14:40:00,
2013-05-20 10:50:00,74.8,66.3,29.97,WNW,297,1.0,1.0,75,0.00,,,0.00,Wunderground v.1.13,2013-05-20 14:50:00,
2013-05-20 11:00:00,75.0,66.1,29.97,WNW,297,0.0,0.0,74,0.00,,,0.00,Wunderground v.1.13,2013-05-20 15:00:00,
2013-05-20 11:10:00,75.6,66.7,29.97,SW,231,0.0,0.0,74,0.00,,,0.00,Wunderground v.1.13,2013-05-20 15:10:00,
2013-05-20 11:20:00,76.7,67.4,29.97,SSW,202,0.0,0.0,73,0.00,,,0.00,Wunderground v.1.13,2013-05-20 15:20:00,
2013-05-20 11:30:00,77.5,67.8,29.98,West,277,0.0,0.0,72,0.00,,,0.00,Wunderground v.1.13,2013-05-20 15:30:00,
2013-05-20 11:40:00,77.1,66.6,29.98,South,169,1.0,1.0,70,0.00,,,0.00,Wunderground v.1.13,2013-05-20 15:40:00,
2013-05-20 11:50:00,76.8,67.9,29.98,WNW,289,0.0,2.0,74,0.00,,,0.00,Wunderground v.1.13,2013-05-20 15:50:00,
2013-05-20 12:00:00,76.6,68.1,29.99,NW,309,1.0,1.0,75,0.00,,,0.00,Wunderground v.1.13,2013-05-20 16:00:00,
2013-05-20 12:10:00,77.6,68.3,29.98,NNW,332,2.0,2.0,73,0.00,,,0.00,Wunderground v.1.13,2013-05-20 16:10:00,
2013-05-20 12:20:00,77.7,68.0,29.98,NNW,328,1.0,1.0,72,0.00,,,0.00,Wunderground v.1.13,2013-05-20 16:20:00,
2013-05-20 12:30:00,77.8,68.0,29.98,West,263,1.0,2.0,72,0.00,,,0.00,Wunderground v.1.13,2013-05-20 16:30:00,
2013-05-20 12:40:00,78.2,68.0,29.98,WNW,292,1.0,1.0,71,0.00,,,0.00,Wunderground v.1.13,2013-05-20 16:40:00,
2013-05-20 12:50:00,78.1,67.5,29.97,WNW,295,1.0,1.0,70,0.00,,,0.00,Wunderground v.1.13,2013-05-20 16:50:00,
2013-05-20 13:00:00,78.5,67.5,29.97,NW,306,1.0,2.0,69,0.00,,,0.00,Wunderground v.1.13,2013-05-20 17:00:00,
2013-05-20 13:10:00,78.6,67.6,29.96,WSW,247,1.0,1.0,69,0.00,,,0.00,Wunderground v.1.13,2013-05-20 17:10:00,
2013-05-20 13:20:00,78.6,68.0,29.96,WNW,303,1.0,1.0,70,0.00,,,0.00,Wunderground v.1.13,2013-05-20 17:20:00,
2013-05-20 13:30:00,79.6,69.0,29.95,SW,215,0.0,1.0,70,0.00,,,0.00,Wunderground v.1.13,2013-05-20 17:30:00,
2013-05-20 13:40:00,80.0,68.1,29.95,NW,309,1.0,1.0,67,0.00,,,0.00,Wunderground v.1.13,2013-05-20 17:40:00,
2013-05-20 13:50:00,79.5,68.4,29.96,WNW,294,1.0,1.0,69,0.00,,,0.00,Wunderground v.1.13,2013-05-20 17:50:00,
2013-05-20 14:00:00,78.9,67.9,29.96,WNW,300,0.0,0.0,69,0.00,,,0.00,Wunderground v.1.13,2013-05-20 18:00:00,
2013-05-20 14:10:00,79.1,68.5,29.96,West,267,1.0,1.0,70,0.00,,,0.00,Wunderground v.1.13,2013-05-20 18:10:00,
2013-05-20 14:20:00,79.4,68.8,29.96,WNW,300,1.0,1.0,70,0.00,,,0.00,Wunderground v.1.13,2013-05-20 18:20:00,
2013-05-20 14:30:00,79.6,68.5,29.96,SSE,157,1.0,1.0,69,0.00,,,0.00,Wunderground v.1.13,2013-05-20 18:30:00,
2013-05-20 14:40:00,79.9,68.8,29.95,WNW,298,1.0,1.0,69,0.00,,,0.00,Wunderground v.1.13,2013-05-20 18:40:00,
2013-05-20 14:50:00,80.3,67.9,29.95,SSE,149,1.0,1.0,66,0.00,,,0.00,Wunderground v.1.13,2013-05-20 18:50:00,
2013-05-20 15:00:00,80.4,68.0,29.94,SSE,153,1.0,1.0,66,0.00,,,0.00,Wunderground v.1.13,2013-05-20 19:00:00,
2013-05-20 15:10:00,80.2,68.2,29.94,WNW,302,1.0,1.0,67,0.00,,,0.00,Wunderground v.1.13,2013-05-20 19:10:00,
2013-05-20 15:20:00,80.0,69.3,29.94,WNW,302,0.0,1.0,70,0.00,,,0.00,Wunderground v.1.13,2013-05-20 19:20:00,
2013-05-20 15:30:00,80.5,68.5,29.93,South,173,1.0,2.0,67,0.00,,,0.00,Wunderground v.1.13,2013-05-20 19:30:00,
2013-05-20 15:40:00,80.0,68.1,29.93,SE,146,1.0,1.0,67,0.00,,,0.00,Wunderground v.1.13,2013-05-20 19:40:00,
2013-05-20 15:50:00,80.7,68.3,29.92,WNW,302,1.0,1.0,66,0.00,,,0.00,Wunderground v.1.13,2013-05-20 19:50:00,
2013-05-20 16:00:00,80.8,68.4,29.91,West,276,1.0,1.0,66,0.00,,,0.00,Wunderground v.1.13,2013-05-20 20:00:00,
2013-05-20 16:10:00,81.2,69.2,29.91,WNW,286,1.0,1.0,67,0.00,,,0.00,Wunderground v.1.13,2013-05-20 20:10:00,
2013-05-20 16:20:00,81.3,68.9,29.91,WNW,298,1.0,2.0,66,0.00,,,0.00,Wunderground v.1.13,2013-05-20 20:20:00,
2013-05-20 16:30:00,81.6,68.7,29.91,WNW,296,1.0,2.0,65,0.00,,,0.00,Wunderground v.1.13,2013-05-20 20:30:00,
2013-05-20 16:40:00,81.5,68.1,29.91,South,175,1.0,1.0,64,0.00,,,0.00,Wunderground v.1.13,2013-05-20 20:40:00,
2013-05-20 16:50:00,80.9,68.5,29.91,WNW,296,1.0,1.0,66,0.00,,,0.00,Wunderground v.1.13,2013-05-20 20:50:00,
2013-05-20 17:00:00,80.3,68.8,29.91,WNW,296,0.0,0.0,68,0.00,,,0.00,Wunderground v.1.13,2013-05-20 21:00:00,
2013-05-20 17:10:00,80.0,68.9,29.91,WNW,296,0.0,0.0,69,0.00,,,0.00,Wunderground v.1.13,2013-05-20 21:10:00,
2013-05-20 17:20:00,79.9,69.2,29.91,WNW,296,0.0,0.0,70,0.00,,,0.00,Wunderground v.1.13,2013-05-20 21:20:00,
2013-05-20 17:30:00,79.7,69.5,29.91,WNW,296,0.0,0.0,71,0.00,,,0.00,Wunderground v.1.13,2013-05-20 21:30:00,
2013-05-20 17:40:00,79.4,69.2,29.91,WNW,296,0.0,0.0,71,0.00,,,0.00,Wunderground v.1.13,2013-05-20 21:40:00,
2013-05-20 17:50:00,79.1,69.7,29.91,WNW,296,0.0,0.0,73,0.00,,,0.00,Wunderground v.1.13,2013-05-20 21:50:00,
2013-05-20 18:00:00,78.7,70.1,29.92,WNW,296,1.0,1.0,75,0.00,,,0.00,Wunderground v.1.13,2013-05-20 22:00:00,
2013-05-20 18:10:00,78.4,69.4,29.92,WNW,301,0.0,0.0,74,0.00,,,0.00,Wunderground v.1.13,2013-05-20 22:10:00,
2013-05-20 18:20:00,78.0,69.4,29.91,WNW,286,0.0,1.0,75,0.00,,,0.00,Wunderground v.1.13,2013-05-20 22:20:00,
2013-05-20 18:30:00,78.0,69.8,29.91,WNW,290,0.0,1.0,76,0.00,,,0.00,Wunderground v.1.13,2013-05-20 22:30:00,
2013-05-20 18:40:00,78.2,70.8,29.91,WNW,290,0.0,0.0,78,0.00,,,0.00,Wunderground v.1.13,2013-05-20 22:40:00,
2013-05-20 18:50:00,78.2,69.6,29.91,WNW,290,0.0,0.0,75,0.00,,,0.00,Wunderground v.1.13,2013-05-20 22:50:00,
2013-05-20 19:00:00,78.4,69.4,29.91,WNW,290,0.0,0.0,74,0.00,,,0.00,Wunderground v.1.13,2013-05-20 23:00:00,
2013-05-20 19:10:00,78.3,69.3,29.91,WNW,290,0.0,0.0,74,0.00,,,0.00,Wunderground v.1.13,2013-05-20 23:10:00,
2013-05-20 19:20:00,77.7,69.1,29.91,WNW,290,0.0,0.0,75,0.00,,,0.00,Wunderground v.1.13,2013-05-20 23:20:00,
2013-05-20 19:30:00,77.5,69.7,29.91,WNW,290,0.0,0.0,77,0.00,,,0.00,Wunderground v.1.13,2013-05-20 23:30:00,
2013-05-20 19:40:00,77.3,69.1,29.91,WNW,290,0.0,0.0,76,0.00,,,0.00,Wunderground v.1.13,2013-05-20 23:40:00,
2013-05-20 19:50:00,77.0,69.6,29.91,WNW,290,0.0,0.0,78,0.00,,,0.00,Wunderground v.1.13,2013-05-20 23:50:00,
2013-05-20 20:00:00,76.6,69.2,29.91,WNW,290,0.0,0.0,78,0.00,,,0.00,Wunderground v.1.13,2013-05-21 00:00:00,
2013-05-20 20:10:00,76.1,68.7,29.91,WNW,290,0.0,0.0,78,0.00,,,0.00,Wunderground v.1.13,2013-05-21 00:10:00,
2013-05-20 20:20:00,75.5,68.9,29.91,WNW,290,0.0,0.0,80,0.00,,,0.00,Wunderground v.1.13,2013-05-21 00:20:00,
2013-05-20 20:30:00,75.0,68.8,29.91,WNW,290,0.0,0.0,81,0.00,,,0.00,Wunderground v.1.13,2013-05-21 00:30:00,
2013-05-20 20:40:00,74.4,68.5,29.91,WNW,290,0.0,0.0,82,0.00,,,0.00,Wunderground v.1.13,2013-05-21 00:40:00,
2013-05-20 20:50:00,73.9,68.4,29.91,WNW,290,0.0,0.0,83,0.00,,,0.00,Wunderground v.1.13,2013-05-21 00:50:00,
2013-05-20 21:00:00,73.4,67.9,29.91,WNW,290,0.0,0.0,83,0.00,,,0.00,Wunderground v.1.13,2013-05-21 01:00:00,
2013-05-20 21:10:00,73.1,67.6,29.90,WNW,290,0.0,0.0,83,0.00,,,0.00,Wunderground v.1.13,2013-05-21 01:10:00,
2013-05-20 21:20:00,72.9,67.8,29.90,WNW,290,0.0,0.0,84,0.00,,,0.00,Wunderground v.1.13,2013-05-21 01:20:00,
2013-05-20 21:30:00,72.6,67.5,29.90,WNW,290,0.0,0.0,84,0.00,,,0.00,Wunderground v.1.13,2013-05-21 01:30:00,
2013-05-20 21:40:00,72.1,67.7,29.91,WNW,290,1.0,1.0,86,0.00,,,0.00,Wunderground v.1.13,2013-05-21 01:40:00,
2013-05-20 21:50:00,71.7,67.6,29.92,WNW,290,0.0,0.0,87,0.00,,,0.00,Wunderground v.1.13,2013-05-21 01:50:00,
2013-05-20 22:00:00,71.7,67.6,29.92,WNW,290,0.0,0.0,87,0.00,,,0.00,Wunderground v.1.13,2013-05-21 02:00:00,
2013-05-20 22:10:00,71.7,67.6,29.92,WNW,290,0.0,0.0,87,0.00,,,0.00,Wunderground v.1.13,2013-05-21 02:10:00,
2013-05-20 22:20:00,71.6,67.5,29.91,WNW,290,0.0,0.0,87,0.00,,,0.00,Wunderground v.1.13,2013-05-21 02:20:00,
2013-05-20 22:30:00,71.3,67.2,29.92,WNW,290,0.0,0.0,87,0.00,,,0.00,Wunderground v.1.13,2013-05-21 02:30:00,
2013-05-20 22:40:00,70.7,67.3,29.92,WNW,290,0.0,0.0,89,0.00,,,0.00,Wunderground v.1.13,2013-05-21 02:40:00,
2013-05-20 22:50:00,70.2,67.1,29.92,WNW,290,0.0,0.0,90,0.00,,,0.00,Wunderground v.1.13,2013-05-21 02:50:00,
2013-05-20 23:00:00,69.9,67.2,29.92,WNW,290,0.0,0.0,91,0.00,,,0.00,Wunderground v.1.13,2013-05-21 03:00:00,
2013-05-20 23:10:00,69.4,67.0,29.91,WNW,290,0.0,0.0,92,0.00,,,0.00,Wunderground v.1.13,2013-05-21 03:10:00,
2013-05-20 23:20:00,69.0,66.6,29.91,WNW,290,0.0,0.0,92,0.00,,,0.00,Wunderground v.1.13,2013-05-21 03:20:00,
2013-05-20 23:30:00,68.7,66.6,29.91,WNW,290,0.0,0.0,93,0.00,,,0.00,Wunderground v.1.13,2013-05-21 03:30:00,
2013-05-20 23:40:00,68.2,66.1,29.91,WNW,290,0.0,0.0,93,0.00,,,0.00,Wunderground v.1.13,2013-05-21 03:40:00,
2013-05-20 23:50:00,67.9,66.1,29.91,WNW,290,0.0,0.0,94,0.00,,,0.00,Wunderground v.1.13,2013-05-21 03:50:00,